Alexander City, AL

6:16 AM CDT on May 26, 2017 (GMT -0500)
Russell

Weather History for KALX - February, 2013

Change the Weather History Date:

Wednesday, February 20, 2013

  Actual Average (KAUO) Record (KAUO)
Temperature  
Mean Temperature 42 °F -  
Max Temperature 54 °F 61 °F 76 °F (1971)
Min Temperature 29 °F 35 °F 17 °F (1958)
Degree Days  
Heating Degree Days 24    
Moisture  
Dew Point 18 °F    
Average Humidity 40    
Maximum Humidity 80    
Minimum Humidity 11    
Precipitation  
Precipitation 0.00 in - - ()
Sea Level Pressure  
Sea Level Pressure 30.19 in    
Wind  
Wind Speed 5 mph (North)    
Max Wind Speed 10 mph    
Max Gust Speed 16 mph    
Visibility 10 miles    
Events      
Averages and records for this station are not official NWS values.
T = Trace of Precipitation, MM = Missing Value Source: NWS Daily Summary

Daily Weather History Graph

Daily Weather History Graph

Search for Another Location

Airport or City:

Trip Planner

Search our weather history database for the weather conditions in past years. The results will help you decide how hot, cold, wet, or windy it might be!

Date:

Astronomy

Feb. 20, 2013 Rise Set
Actual Time 6:21 AM CST 5:33 PM CST
Civil Twilight 5:56 AM CST 5:58 PM CST
Nautical Twilight 5:27 AM CST 6:27 PM CST
Astronomical Twilight 4:59 AM CST 6:56 PM CST
Moon 1:03 PM CST (2/20) 2:32 AM CST (2/20)
Length of Visible Light 12h 02m
Length of Day
11h 12m
Waxing Gibbous, 76% of the Moon is Illuminated
Feb 20
Waxing Gibbous
Feb 25
Full
Mar 4
Last Quarter
Mar 11
New
Mar 19
First Quarter

Hourly Weather History & Observations

Time (CST) Temp. Windchill Dew Point Humidity Pressure Visibility Wind Dir Wind Speed Gust Speed Precip Events Conditions
12:15 AM 42.1 °F 37.1 °F 19.6 °F 41% 30.22 in 10.0 mi NNW 8.1 mph - N/A   Clear
12:35 AM 41.9 °F 37.5 °F 19.8 °F 41% 30.21 in 10.0 mi North 6.9 mph - N/A   Clear
12:55 AM 41.0 °F 35.8 °F 19.9 °F 43% 30.21 in 10.0 mi North 8.1 mph - N/A   Clear
1:15 AM 41.0 °F 35.2 °F 20.3 °F 44% 30.21 in 10.0 mi North 9.2 mph - N/A   Clear
1:35 AM 40.3 °F 35.5 °F 20.3 °F 45% 30.20 in 10.0 mi North 6.9 mph - N/A   Clear
1:55 AM 39.6 °F 36.3 °F 20.8 °F 47% 30.19 in 10.0 mi North 4.6 mph - N/A   Clear
2:15 AM 39.6 °F 34.0 °F 21.6 °F 49% 30.19 in 10.0 mi North 8.1 mph - N/A   Clear
2:55 AM 39.6 °F 34.7 °F 21.0 °F 48% 30.19 in 10.0 mi North 6.9 mph - N/A   Clear
3:15 AM 38.1 °F 33.7 °F 20.1 °F 48% 30.18 in 10.0 mi North 5.8 mph - N/A   Clear
3:35 AM 37.0 °F 32.4 °F 19.8 °F 50% 30.18 in 10.0 mi North 5.8 mph - N/A   Clear
3:55 AM 37.0 °F 34.5 °F 20.3 °F 51% 30.19 in 10.0 mi North 3.5 mph - N/A   Clear
4:15 AM 37.0 °F - 20.8 °F 52% 30.19 in 10.0 mi Calm Calm - N/A   Clear
4:35 AM 35.1 °F - 20.8 °F 56% 30.19 in 10.0 mi Calm Calm - N/A   Clear
4:55 AM 34.9 °F - 21.0 °F 57% 30.21 in 10.0 mi Calm Calm - N/A   Clear
5:15 AM 34.7 °F - 24.1 °F 65% 30.22 in 10.0 mi Calm Calm - N/A   Clear
5:35 AM 33.3 °F - 24.8 °F 71% 30.22 in 10.0 mi Calm Calm - N/A   Clear
5:55 AM 29.7 °F - 24.1 °F 80% 30.23 in 10.0 mi Calm Calm - N/A   Clear
6:15 AM 31.5 °F - 25.7 °F 79% 30.22 in 10.0 mi Calm Calm - N/A   Clear
6:35 AM 29.7 °F - 24.3 °F 80% 30.23 in 10.0 mi Calm Calm - N/A   Clear
6:55 AM 31.5 °F - 25.2 °F 78% 30.22 in 10.0 mi Calm Calm - N/A   Clear
7:15 AM 32.0 °F - 25.3 °F 76% 30.22 in 10.0 mi Calm Calm - N/A   Clear
7:35 AM 36.7 °F - 25.9 °F 65% 30.20 in 10.0 mi Calm Calm - N/A   Clear
7:55 AM 39.4 °F - 25.2 °F 57% 30.20 in 10.0 mi Calm Calm - N/A   Clear
8:15 AM 41.0 °F 37.1 °F 20.5 °F 44% 30.21 in 10.0 mi NE 5.8 mph - N/A   Clear
8:35 AM 42.1 °F 37.1 °F 19.8 °F 41% 30.22 in 10.0 mi NNE 8.1 mph - N/A   Clear
8:55 AM 43.3 °F 38.1 °F 18.1 °F 36% 30.22 in 10.0 mi North 9.2 mph 16.1 mph N/A   Clear
9:15 AM 47.3 °F - 17.8 °F 31% 30.22 in 10.0 mi NNE 9.2 mph - N/A   Clear
9:35 AM 49.6 °F - 17.6 °F 28% 30.23 in 10.0 mi NNW 5.8 mph - N/A   Clear
9:55 AM 49.6 °F - 14.0 °F 24% 30.23 in 10.0 mi North 6.9 mph - N/A   Clear
10:15 AM 50.0 °F - 10.6 °F 21% 30.23 in 10.0 mi NNW 6.9 mph - N/A   Clear
10:35 AM 50.9 °F - 9.9 °F 19% 30.23 in 10.0 mi NNE 5.8 mph - N/A   Clear
10:55 AM 53.2 °F - 9.0 °F 17% 30.23 in 10.0 mi North 8.1 mph - N/A   Clear
11:15 AM 54.7 °F - 8.8 °F 16% 30.21 in 10.0 mi NNE 6.9 mph - N/A   Clear
11:35 AM 54.7 °F - 7.0 °F 15% 30.21 in 10.0 mi Calm Calm - N/A   Clear
11:55 AM 54.7 °F - 7.9 °F 15% 30.20 in 10.0 mi NW 8.1 mph - N/A   Clear
12:15 PM 54.7 °F - 5.7 °F 14% 30.20 in 10.0 mi NW 10.4 mph - N/A   Clear
12:35 PM 54.7 °F - 0.9 °F 11% 30.20 in 10.0 mi West 10.4 mph - N/A   Clear
12:55 PM 54.7 °F - 0.1 °F 11% 30.19 in 10.0 mi NNW 9.2 mph - N/A   Clear
1:15 PM 54.7 °F - 9.5 °F 16% 30.17 in 10.0 mi NNW 9.2 mph - N/A   Clear
1:35 PM 54.7 °F - 8.8 °F 16% 30.18 in 10.0 mi NNW 6.9 mph - N/A   Clear
1:55 PM 54.7 °F - 8.2 °F 16% 30.19 in 10.0 mi WNW 3.5 mph - N/A   Clear
2:15 PM 54.7 °F - 9.1 °F 16% 30.18 in 10.0 mi NNW 9.2 mph - N/A   Clear
2:35 PM 54.7 °F - 11.5 °F 18% 30.16 in 10.0 mi NNW 10.4 mph - N/A   Clear
2:55 PM 54.7 °F - 6.1 °F 14% 30.20 in 10.0 mi North 4.6 mph - N/A   Clear
3:15 PM 52.3 °F - 11.7 °F 20% 30.22 in 10.0 mi NW 8.1 mph - N/A   Clear
3:35 PM 52.2 °F - 12.9 °F 21% 30.19 in 10.0 mi North 10.4 mph - N/A   Clear
3:55 PM 52.2 °F - 10.0 °F 19% 30.15 in 10.0 mi NNE 8.1 mph - N/A   Clear
4:15 PM 51.4 °F - 9.7 °F 19% 30.16 in 10.0 mi NNE 8.1 mph - N/A   Clear
4:35 PM 49.6 °F - 8.8 °F 19% 30.13 in 10.0 mi NE 6.9 mph - N/A   Clear
4:55 PM 49.6 °F - 9.7 °F 20% 30.13 in 10.0 mi NNE 5.8 mph - N/A   Clear
5:15 PM 49.6 °F - 11.5 °F 22% 30.13 in 10.0 mi Calm Calm - N/A   Clear
5:35 PM 49.6 °F - 13.1 °F 23% 30.15 in 10.0 mi North 3.5 mph - N/A   Clear
5:55 PM 49.6 °F - 18.3 °F 29% 30.16 in 10.0 mi NNW 3.5 mph - N/A   Clear
6:15 PM 49.6 °F - 17.8 °F 28% 30.15 in 10.0 mi Calm Calm - N/A   Clear
6:35 PM 45.7 °F 44.4 °F 21.0 °F 38% 30.16 in 10.0 mi NW 3.5 mph - N/A   Clear
6:55 PM 44.4 °F - 21.4 °F 40% 30.16 in 10.0 mi Calm Calm - N/A   Clear
7:15 PM 42.1 °F - 24.3 °F 49% 30.16 in 10.0 mi Calm Calm - N/A   Clear
7:35 PM 41.9 °F - 26.2 °F 54% 30.16 in 10.0 mi Calm Calm - N/A   Clear
7:55 PM 41.0 °F - 25.9 °F 55% 30.15 in 10.0 mi Calm Calm - N/A   Clear
8:15 PM 39.6 °F - 28.8 °F 65% 30.15 in 10.0 mi Calm Calm - N/A   Clear
8:35 PM 39.6 °F - 27.9 °F 63% 30.15 in 10.0 mi Calm Calm - N/A   Clear
8:55 PM 39.6 °F - 28.0 °F 63% 30.14 in 10.0 mi Calm Calm - N/A   Clear
9:15 PM 39.0 °F 35.7 °F 27.1 °F 62% 30.16 in 10.0 mi North 4.6 mph - N/A   Clear
9:35 PM 41.0 °F - 21.0 °F 45% 30.16 in 10.0 mi Calm Calm - N/A   Clear
9:55 PM 41.0 °F 39.0 °F 20.1 °F 43% 30.17 in 10.0 mi North 3.5 mph - N/A   Clear
10:15 PM 41.0 °F - 20.1 °F 43% 30.16 in 10.0 mi Calm Calm - N/A   Clear
10:35 PM 40.8 °F 38.8 °F 21.2 °F 46% 30.15 in 10.0 mi NNE 3.5 mph - N/A   Clear
10:55 PM 39.7 °F 37.6 °F 20.7 °F 46% 30.15 in 10.0 mi NNE 3.5 mph - N/A   Clear
11:15 PM 39.6 °F 36.3 °F 20.5 °F 46% 30.15 in 10.0 mi North 4.6 mph - N/A   Clear
11:35 PM 39.6 °F 36.3 °F 20.5 °F 46% 30.15 in 10.0 mi North 4.6 mph - N/A   Clear
11:55 PM 39.6 °F 37.4 °F 21.6 °F 49% 30.14 in 10.0 mi North 3.5 mph - N/A   Clear